Stündliche Wetter Holovnivka

Heute, 21 Juni, Montag

Zeit Temperatur Niederschläge Wind Luftdruck Luftfeuchtigkeit
00:00 +20°C° 0 mm 4 m/S 745 mmHg 74%
01:00 +20°C° 0 mm 4 m/S 745 mmHg 74%
02:00 +20°C° 0 mm 4 m/S 745 mmHg 72%
03:00 +20°C° 0 mm 4 m/S 745 mmHg 73%
04:00 +20°C° 0 mm 4 m/S 745 mmHg 75%
05:00 +19°C° 0 mm 4 m/S 746 mmHg 77%
06:00 +21°C° 0 mm 5 m/S 746 mmHg 72%
07:00 +23°C° 0 mm 6 m/S 746 mmHg 67%
08:00 +24°C° 0 mm 6 m/S 746 mmHg 63%
09:00 +27°C° 0 mm 6 m/S 746 mmHg 59%
10:00 +28°C° 0 mm 6 m/S 746 mmHg 55%
11:00 +29°C° 0 mm 7 m/S 746 mmHg 51%
12:00 +29°C° 0 mm 6 m/S 746 mmHg 51%
13:00 +30°C° 0 mm 6 m/S 746 mmHg 52%
14:00 +30°C° 0 mm 6 m/S 746 mmHg 52%
15:00 +30°C° 0 mm 6 m/S 746 mmHg 55%
16:00 +29°C° 0 mm 6 m/S 746 mmHg 58%
17:00 +28°C° 0 mm 5 m/S 746 mmHg 61%
18:00 +27°C° 0 mm 5 m/S 746 mmHg 66%
19:00 +25°C° 0 mm 4 m/S 746 mmHg 71%
20:00 +22°C° 0 mm 4 m/S 746 mmHg 76%
21:00 +21°C° 0 mm 4 m/S 746 mmHg 76%
22:00 +21°C° 0 mm 4 m/S 746 mmHg 76%
23:00 +20°C° 0 mm 4 m/S 746 mmHg 75%

Morgen, 22 Juni, Dienstag

Zeit Temperatur Niederschläge Wind Luftdruck Luftfeuchtigkeit
00:00 +20°C° 0 mm 4 m/S 746 mmHg 74%
01:00 +19°C° 0 mm 4 m/S 746 mmHg 73%
02:00 +19°C° 0 mm 4 m/S 746 mmHg 71%
03:00 +19°C° 0 mm 4 m/S 746 mmHg 72%
04:00 +19°C° 0 mm 4 m/S 746 mmHg 73%
05:00 +19°C° 0 mm 4 m/S 746 mmHg 74%
06:00 +20°C° 0 mm 4 m/S 746 mmHg 70%
07:00 +22°C° 0 mm 5 m/S 746 mmHg 66%
08:00 +25°C° 0 mm 5 m/S 747 mmHg 62%
09:00 +26°C° 0 mm 6 m/S 747 mmHg 57%
10:00 +28°C° 0 mm 6 m/S 747 mmHg 53%
11:00 +29°C° 0 mm 6 m/S 747 mmHg 49%
12:00 +30°C° 0 mm 6 m/S 747 mmHg 49%
13:00 +30°C° 0 mm 6 m/S 747 mmHg 49%
14:00 +32°C° 0 mm 6 m/S 747 mmHg 50%
15:00 +30°C° 0 mm 6 m/S 747 mmHg 53%
16:00 +30°C° 0 mm 5 m/S 747 mmHg 57%
17:00 +29°C° 0 mm 5 m/S 747 mmHg 60%
18:00 +28°C° 0 mm 5 m/S 746 mmHg 66%
19:00 +27°C° 0 mm 4 m/S 746 mmHg 73%
20:00 +25°C° 0 mm 4 m/S 746 mmHg 79%
21:00 +25°C° 0 mm 4 m/S 746 mmHg 76%
22:00 +25°C° 0 mm 5 m/S 746 mmHg 74%
23:00 +25°C° 0 mm 5 m/S 746 mmHg 72%

übermorgen, 23 Juni, Mittwoch

Zeit Temperatur Niederschläge Wind Luftdruck Luftfeuchtigkeit
00:00 +25°C° 0 mm 5 m/S 746 mmHg 70%
01:00 +25°C° 0 mm 5 m/S 746 mmHg 68%
02:00 +23°C° 0 mm 5 m/S 746 mmHg 65%
03:00 +23°C° 0 mm 5 m/S 746 mmHg 69%
04:00 +22°C° 0 mm 5 m/S 746 mmHg 73%
05:00 +21°C° 0 mm 4 m/S 746 mmHg 77%
06:00 +23°C° 0 mm 4 m/S 746 mmHg 73%
07:00 +25°C° 0 mm 4 m/S 746 mmHg 70%
08:00 +26°C° 0 mm 4 m/S 746 mmHg 66%
09:00 +27°C° 0 mm 4 m/S 747 mmHg 63%
10:00 +28°C° 0 mm 5 m/S 747 mmHg 60%
11:00 +29°C° 0 mm 5 m/S 747 mmHg 56%
12:00 +30°C° 0 mm 5 m/S 747 mmHg 56%
13:00 +30°C° 0 mm 5 m/S 747 mmHg 55%
14:00 +30°C° 0 mm 5 m/S 747 mmHg 55%
15:00 +30°C° 0 mm 4 m/S 747 mmHg 57%
16:00 +30°C° 0 mm 4 m/S 747 mmHg 60%
17:00 +30°C° 0 mm 3 m/S 747 mmHg 63%
18:00 +28°C° 0 mm 3 m/S 747 mmHg 68%
19:00 +27°C° 0 mm 3 m/S 747 mmHg 73%
20:00 +25°C° 0 mm 3 m/S 747 mmHg 78%
21:00 +24°C° 0 mm 3 m/S 747 mmHg 79%
22:00 +24°C° 0 mm 3 m/S 747 mmHg 80%
23:00 +22°C° 0 mm 3 m/S 747 mmHg 81%

24 Juni, Donnerstag

Zeit Temperatur Niederschläge Wind Luftdruck Luftfeuchtigkeit
00:00 +22°C° 0 mm 3 m/S 747 mmHg 79%
01:00 +22°C° 0 mm 3 m/S 747 mmHg 77%
02:00 +22°C° 0 mm 4 m/S 747 mmHg 75%
03:00 +22°C° 0 mm 4 m/S 746 mmHg 76%
04:00 +22°C° 0 mm 4 m/S 746 mmHg 76%
05:00 +22°C° 0 mm 4 m/S 746 mmHg 77%
06:00 +25°C° 0 mm 5 m/S 747 mmHg 73%
07:00 +26°C° 0 mm 5 m/S 747 mmHg 69%
08:00 +27°C° 0 mm 5 m/S 747 mmHg 66%
09:00 +29°C° 0 mm 5 m/S 747 mmHg 60%
10:00 +30°C° 0 mm 6 m/S 747 mmHg 53%
11:00 +33°C° 0 mm 6 m/S 747 mmHg 47%
12:00 +33°C° 0 mm 5 m/S 747 mmHg 47%
13:00 +33°C° 0 mm 5 m/S 747 mmHg 47%
14:00 +33°C° 0 mm 5 m/S 747 mmHg 47%
15:00 +32°C° 0 mm 5 m/S 747 mmHg 51%
16:00 +30°C° 0 mm 5 m/S 747 mmHg 56%
17:00 +29°C° 0 mm 5 m/S 747 mmHg 61%
18:00 +27°C° 0 mm 4 m/S 747 mmHg 68%
19:00 +26°C° 0 mm 3 m/S 747 mmHg 75%
20:00 +25°C° 0 mm 3 m/S 747 mmHg 81%
21:00 +24°C° 0 mm 3 m/S 747 mmHg 82%
22:00 +24°C° 0 mm 2 m/S 747 mmHg 83%
23:00 +24°C° 0 mm 2 m/S 747 mmHg 84%

25 Juni, Freitag

Zeit Temperatur Niederschläge Wind Luftdruck Luftfeuchtigkeit
00:00 +24°C° 0 mm 2 m/S 747 mmHg 83%
01:00 +24°C° 0 mm 2 m/S 747 mmHg 82%
02:00 +24°C° 0 mm 2 m/S 746 mmHg 81%
03:00 +24°C° 0 mm 3 m/S 746 mmHg 82%
04:00 +24°C° 0 mm 3 m/S 746 mmHg 82%
05:00 +24°C° 0 mm 3 m/S 746 mmHg 82%
06:00 +25°C° 0 mm 4 m/S 746 mmHg 76%
07:00 +26°C° 0 mm 5 m/S 747 mmHg 70%
08:00 +27°C° 0 mm 5 m/S 747 mmHg 63%
09:00 +29°C° 0 mm 5 m/S 747 mmHg 58%
10:00 +30°C° 0 mm 5 m/S 746 mmHg 53%
11:00 +33°C° 0 mm 5 m/S 746 mmHg 49%
12:00 +33°C° 0 mm 5 m/S 746 mmHg 50%
13:00 +33°C° 0 mm 5 m/S 746 mmHg 51%
14:00 +33°C° 0 mm 5 m/S 746 mmHg 52%
15:00 +33°C° 0 mm 4 m/S 746 mmHg 57%
16:00 +32°C° 0 mm 4 m/S 746 mmHg 61%
17:00 +31°C° 0 mm 3 m/S 746 mmHg 66%
18:00 +29°C° 0 mm 3 m/S 746 mmHg 70%
19:00 +28°C° 0 mm 3 m/S 745 mmHg 74%
20:00 +26°C° 0 mm 3 m/S 745 mmHg 78%
21:00 +26°C° 0 mm 3 m/S 745 mmHg 80%
22:00 +25°C° 0 mm 3 m/S 745 mmHg 81%
23:00 +24°C° 0 mm 3 m/S 745 mmHg 83%

26 Juni, Samstag

Zeit Temperatur Niederschläge Wind Luftdruck Luftfeuchtigkeit
00:00 +24°C° 0.1 mm 3 m/S 745 mmHg 83%
01:00 +24°C° 0.1 mm 2 m/S 745 mmHg 82%
02:00 +24°C° 0.1 mm 2 m/S 745 mmHg 81%
03:00 +24°C° 0 mm 2 m/S 745 mmHg 82%
04:00 +23°C° 0 mm 2 m/S 745 mmHg 83%
05:00 +23°C° 0 mm 2 m/S 745 mmHg 83%
06:00 +25°C° 0 mm 3 m/S 745 mmHg 78%
07:00 +27°C° 0 mm 3 m/S 745 mmHg 73%
08:00 +28°C° 0 mm 3 m/S 746 mmHg 67%
09:00 +30°C° 0 mm 3 m/S 746 mmHg 62%
10:00 +31°C° 0 mm 3 m/S 746 mmHg 57%
11:00 +33°C° 0 mm 3 m/S 746 mmHg 52%
12:00 +34°C° 0 mm 3 m/S 745 mmHg 50%
13:00 +34°C° 0 mm 2 m/S 745 mmHg 48%
14:00 +35°C° 0 mm 2 m/S 745 mmHg 46%
15:00 +34°C° 0 mm 2 m/S 745 mmHg 50%
16:00 +33°C° 0 mm 3 m/S 744 mmHg 54%
17:00 +33°C° 0 mm 3 m/S 744 mmHg 58%
18:00 +29°C° 1.3 mm 3 m/S 744 mmHg 65%
19:00 +26°C° 1.3 mm 4 m/S 744 mmHg 72%
20:00 +23°C° 1.3 mm 4 m/S 744 mmHg 80%
21:00 +22°C° 0.9 mm 3 m/S 744 mmHg 81%
22:00 +23°C° 0.9 mm 2 m/S 744 mmHg 83%
23:00 +22°C° 0.9 mm 1 m/S 744 mmHg 85%
Mehr zeigen

Wir brauchen deine Erlaubnis

Meteoprog und unser Service Anbieter werden persönliche Daten aufbewahren, so wie Cookies, Geräte Bezeichnung oder ähnliche Technologien von deinem Gerät und Prozess, so wie Persönliche Daten Inhalte und Werbungen, genauso wie social Media und den Verkehr zu analysieren.

  • Aufbewahrung und/oder Zugang zu deiner Geräte Informationen.

    Cookies, Geräte Bezeichnung oder andere Informationen, können aufbewahrt oder Zugang zu deinem Gerät erhalten, für den Grund, der oben angegeben wird.

  • Personalisierte Werbung und Inhalte, Messungen, Einblick in das Publikum und Produkt Entwicklung.

    Werbungen und Inhalte können personalisiert werden, basierend auf ein Profil. Mehr Daten können besser personalisierte Werbungen und Inhalte hinzufügen. Werbung und Inhalte können gezeigt und gemessen werden. Einblicke über das Publikum, welche die Werbung gesehen haben und den Inhalt, können abgeleitet werden. So wie Daten können genutzt werden, um es zu verbessern oder die Benutzer Erfahrung zu verbessern das System und die Software.

Wenn du “Ich stimme zu” klickst, erlaubst du uns, die Cookies zu benutzen die Geräte Bezeichnung, den Web oder ähnliche Technologien zu benutzen. Deine Settings, können in deinem Gerät bei deinem Browser geändert werden.

Für den bestimmten Zweck, berechtigten Interessen beruhen darauf, mehr als auf den Inhalt. Du kannst mehr darüber in unseren Privaten und Cookie Politik lesen.